This demonstration page uses our WeatherBlox Daily Observations layout. Learn more.

Left ArrowRight Arrow

Hourly Observations for December 17, 2015

Temp ( °F °C ) Dew Point ( °F °C ) Humidity (%) Winds ( mph kmh ) Pressure ( in mb ) Visibility ( mi km ) Precip ( " mm )
12:53 am 00:53 Cloudy 43 6.1 36 2.2 76 76 Calm 30.24 1024 10 16 0.00 0.00
1:53 am 01:53 Cloudy 44 6.7 37 2.8 76 76 undefined N/A 30.24 1024 10 16 0.00 0.00
2:53 am 02:53 Cloudy 43 6.1 37 2.8 80 80 Calm 30.24 1024 10 16 0.00 0.00
3:53 am 03:53 Cloudy 44 6.7 37 2.8 76 76 Calm 30.24 1024 10 16 0.00 0.00
4:53 am 04:53 Cloudy 44 6.7 36 2.2 73 73 Calm 30.23 1024 10 16 0.00 0.00
5:53 am 05:53 Cloudy 44 6.7 37 2.8 76 76 Calm 30.24 1024 10 16 0.00 0.00
6:53 am 06:53 Cloudy 44 6.7 38 3.3 79 79 Calm 30.24 1024 10 16 0.00 0.00
7:53 am 07:53 Cloudy 44 6.7 38 3.3 79 79 Calm 30.25 1024 10 16 0.00 0.00
8:53 am 08:53 Cloudy 44 6.7 38 3.3 79 79 Calm 30.26 1025 10 16 0.00 0.00
9:53 am 09:53 Cloudy 46 7.8 38 3.3 73 73 Calm 30.27 1025 10 16 0.00 0.00
10:53 am 10:53 Cloudy 46 7.8 38 3.3 73 73 Calm 30.27 1025 10 16 0.00 0.00
11:53 am 11:53 Cloudy 47 8.3 37 2.8 69 69 Calm 30.26 1025 10 16 0.00 0.00
12:53 pm 12:53 Cloudy 47 8.3 37 2.8 69 69 Calm 30.24 1024 10 16 0.00 0.00
1:53 pm 13:53 Cloudy 47 8.3 39 3.9 74 74 NE 3 6 30.22 1023 10 16 0.00 0.00
2:53 pm 14:53 Cloudy 48 8.9 37 2.8 66 66 WNW 3 6 30.21 1023 10 16 0.00 0.00
3:53 pm 15:53 Cloudy 47 8.3 38 3.3 71 71 NNW 3 6 30.21 1023 10 16 0.00 0.00
4:53 pm 16:53 Cloudy 47 8.3 38 3.3 71 71 NNE 3 6 30.20 1023 10 16 0.00 0.00
5:53 pm 17:53 Cloudy 47 8.3 38 3.3 71 71 Calm 30.19 1022 10 16 0.00 0.00
6:53 pm 18:53 Cloudy 47 8.3 38 3.3 71 71 Calm 30.19 1022 10 16 0.00 0.00
7:53 pm 19:53 Cloudy 47 8.3 38 3.3 71 71 Calm 30.18 1022 10 16 0.00 0.00
8:53 pm 20:53 Cloudy 46 7.8 39 3.9 77 77 Calm 30.18 1022 10 16 0.00 0.00
9:53 pm 21:53 Cloudy 46 7.8 39 3.9 77 77 Calm 30.17 1022 9 14 0.00 0.00
10:53 pm 22:53 Cloudy 46 7.8 38 3.3 73 73 N 3 6 30.16 1021 9 14 0.00 0.00
11:53 pm 23:53 Cloudy 46 7.8 38 3.3 73 73 Calm 30.13 1020 9 14 0.00 0.00

Powered by AerisWeather